THOR ABLESTAR DEB, 5746

Orbit data source: Space-Track

THOR ABLESTAR DEB, 5746 is space debris in LEO originally from a launch on Thu, 29 Jun 1961 UTC launched from the Air Force Eastern Test Range (AFETR). Debris objects in space refer to the collection of defunct objects orbiting the Earth. Examples of debris include non-operational satellites, rocket bodies, and fragments generated from explosions, collisions, or faulty payload assembly.

Loading next visibility...
Identifier
5746, 1961-015JV
Orbit
LEO
Country
Flag of USUS
Related business
Manufacturer
Unknown
Mission
Spacecraft
Bus & Motor
Unknown
Mass
Unknown
Launch date (UTC)
1961-06-29 (65 years ago)
Launch vehicle
Unknown
Launch site
Air Force Eastern Test Range (AFETR)
Object type
Payload
Rocket body
Debris
Shape & HBR
Unknown shape, 0.1 m
Radar Cross Section
Small (<0.1 m²)

Expand to show TLE details & history
Last TLE update: 1 day ago

TLE from 1 day ago
0 THOR ABLESTAR DEB
1  5746U 61015JV  26122.49356711  .00002509  00000-0  12335-2 0  9996
2  5746  66.3053 294.6783 0035059  54.8677 305.5689 14.19013634275849
Epoch: 2026-05-02T11:50Z
TLE epoch observation values (Epoch: 2026-05-02T11:50:44.198Z)
Latitude
-0.00003°
Longitude
-103.41655°
Altitude
816.116 km
Speed
7.453 km/s
True Right ascension
19h 38m 42s
True Declination
0° 00' 00"
Sunlit
Object was in daylight at epoch
Visualization orbit readout
Latitude
Unknown
Longitude
Unknown
Altitude
Unknown
Speed
Unknown
Apparent Right ascension
Unknown
Apparent Declination
Unknown
Sunlit
N/A
Visualization observer readout
Local Sidereal Time
06:36:26
Azimuth
Unknown
Elevation
Unknown
Doppler factor
Unknown
Orbital elements
Apogee altitude
852.381 km
Perigee altitude
801.859 km
Semi-major axis
7,205.257 km
Eccentricity
0.00351
Inclination
66.3053°
RAAN
294.6783°
Arg. of periapsis
54.8677°
True anomaly
305.24128°
Mean anomaly
305.5689°
Eccentric anomaly
305.40517°
Mean motion
3.5487 °/min
Orbital period
101.45 mins
BSTAR
0.0012335
Loading maneuver chart data...
Computing Atmospheric mass density...
Loading historical data...
Loading historical data...
Loading historical data...
Loading historical data...
Loading historical data...
Loading historical data...
Loading historical data...

Documentation

Showing up to 5 results
|